Regional Weather Roundup
Issued by NWS

Home | Current Version | Previous Version | Text Only | Print | Product List | Glossary Off
Versions: 1 2 3 4 5 6 7 8 9 10 11 12 13 14 15 16 17 18 19 20 21 22 23 24 25 26 27 28 29 30 31 32 33 34 35 36 37 38 39 40 41 42 43 44 45 46 47 48 49 50

000
ASUS43 KOAX 180202
RWRNE

WEATHER ROUNDUP FOR NEBRASKA
NATIONAL WEATHER SERVICE OMAHA NE
800 PM CST TUE JAN 17 2017

NOTES: SATELLITE DATA IS BEING USED TO AUGMENT CLOUD COVER ABOVE
       12000 FEET.
       "FAIR" INDICATES FEW OR NO CLOUDS BELOW 12,000 FEET WITH NO
       SIGNIFICANT WEATHER AND/OR OBSTRUCTIONS TO VISIBILITY.

  * THESE STATIONS DO NOT REPORT WEATHER SUCH AS RAIN...SNOW OR FOG.

NEZ001>004-019>022-054>056-180300-
NEBRASKA PANHANDLE

CITY           SKY/WX    TMP DP  RH WIND       PRES   REMARKS
SCOTTSBLUFF    CLOUDY    37  13  37 W12       29.98S WCI  29
ALLIANCE       CLOUDY    22  16  78 S5        29.95S WCI  16
CHADRON        CLOUDY    22  18  85 W3        29.95R
KIMBALL        CLOUDY    31  28  89 W5        30.00S WCI  26
SIDNEY         CLOUDY    30  26  85 SW13      29.99F WCI  20
$$

NEZ057>060-069>072-079>082-180300-
SOUTHWEST NEBRASKA

CITY           SKY/WX    TMP DP  RH WIND       PRES   REMARKS
NORTH PLATTE   CLEAR     35  27  72 SW6       30.00F WCI  30
IMPERIAL       CLOUDY    32  28  85 SW6       30.01F WCI  26
LEXINGTON      CLOUDY    35  26  71 CALM      30.02F
MCCOOK         CLOUDY    36  27  69 SW6       30.02F WCI  31
OGALLALA       CLOUDY    32  28  84 CALM      30.00S
$$

NEZ005>010-023>029-035>040-094-180300-
NORTH CENTRAL NEBRASKA

CITY           SKY/WX    TMP DP  RH WIND       PRES   REMARKS
VALENTINE      CLOUDY    30  17  58 SW10      29.93R WCI  21
AINSWORTH      CLOUDY    35  26  69 SW9       29.94S WCI  28
BROKEN BOW     CLEAR     32  26  78 CALM      29.99F
O`NEILL        CLOUDY    33  30  89 S8        29.97S WCI  26
ORD            CLOUDY    30  25  81 CALM      30.00F
THEDFORD       CLOUDY    36  28  73 SW8       29.97F WCI  29
$$

NEZ041-046>049-061>064-073>077-083>087-180300-
SOUTH CENTRAL NEBRASKA

CITY           SKY/WX    TMP DP  RH WIND       PRES   REMARKS
GRAND ISLAND   CLEAR     31  30  96 S6        30.04F WCI  25
AURORA         CLEAR     33  32  96 S5        30.05F WCI  28
HASTINGS       CLEAR     34  31  88 S7        30.06S WCI  28
HEBRON         CLEAR     29  28  95 CALM      30.09S
HOLDREGE       CLEAR     33  28  80 S3        30.04S
KEARNEY *      CLEAR     34  28  80 SW6       30.04S WCI  29
YORK           CLEAR     32  32 100 S7        30.06F WCI  26
$$

NEZ011>018-030>034-042>045-180300-
NORTHEAST NEBRASKA

CITY           SKY/WX    TMP DP  RH WIND       PRES   REMARKS
NORFOLK        CLEAR     31  28  89 S3        30.02F
ALBION         CLOUDY    32  31  94 CALM      30.02F
BLAIR          CLOUDY    30  29  94 CALM      30.07F
FREMONT        CLEAR     30  30 100 CALM      30.07F
TEKAMAH        CLEAR     31  28  89 S7        30.08F FOG     WCI  24
WAYNE          CLOUDY    29  28  96 S8        30.03F WCI  21
$$

NEZ050>053-065>068-078-088>093-180300-
SOUTHEAST NEBRASKA

CITY           SKY/WX    TMP DP  RH WIND       PRES   REMARKS
LINCOLN        CLOUDY    28  26  92 S5        30.10F WCI  23
OMAHA EPPLEY   CLOUDY    27  22  81 SE7       30.09F HAZE    WCI  19
BEATRICE       CLEAR     28  27  98 S5        30.11R FOG     WCI  23
FALLS CITY     CLOUDY    29  28  96 SE5       30.12S WCI  24
NEBRASKA CITY  CLEAR     29  29 100 SW5       30.10F WCI  24
PLATTSMOUTH    CLOUDY    29  26  90 S5        30.09F FOG     WCI  24
$$

NEZ044-045-051>053-067-180300-
OMAHA AREA

CITY           SKY/WX    TMP DP  RH WIND       PRES   REMARKS
OMAHA EPPLEY   CLOUDY    27  22  81 SE7       30.09F HAZE    WCI  19
BLAIR          CLOUDY    30  29  94 CALM      30.07F
FREMONT        CLEAR     30  30 100 CALM      30.07F
MILLARD        CLOUDY    30  28  94 CALM      30.09F FOG
OFFUTT AFB     CLOUDY    26  26 100 SE3       30.09F FOG
PLATTSMOUTH    CLOUDY    29  26  90 S5        30.09F FOG     WCI  24
WAHOO          FAIR      30  28  94 S3        30.08F
$$



USA.gov is the U.S. government's official web portal to all federal, state and local government web resources and services.